GFSSE_925_temp_102.txt.gz
Temp
24 23 22 21 21 21 21 21 21 21 21 21 21 21 21 21 21 21 21 20 21 21 21 21 20 20 20 21 20 20 20 20 20 20 20 20 20 20 20 21 23 22 20
24 23 21 21 21 21 22 21 21 21 21 21 21 21 21 21 21 21 21 21 21 21 21 20 20 20 20 20 20 20 20 20 20 21 22 22 20 20 20 21 21 21 20
25 23 21 21 21 21 21 21 21 21 21 21 21 21 21 21 21 21 21 21 21 21 21 21 20 20 20 20 20 20 20 20 21 23 24 24 22 20 20 20 20 20 20
26 25 24 21 21 21 21 22 21 21 21 21 21 21 21 21 21 21 21 21 21 21 21 21 21 21 20 20 20 20 20 20 21 22 24 24 23 20 20 20 20 20 21
26 24 22 21 21 21 21 22 22 21 22 21 21 21 21 21 21 21 21 21 21 21 21 21 21 20 20 20 20 20 20 20 22 24 24 23 23 20 20 21 21 21 21
25 25 22 21 21 21 21 21 21 21 21 21 21 21 21 21 21 21 21 21 21 21 21 21 21 21 21 20 20 20 20 21 23 24 24 22 21 20 20 20 20 19 19
26 25 23 21 21 21 21 21 21 21 21 21 22 21 21 21 21 21 21 21 21 21 21 21 21 21 20 20 20 21 21 21 23 24 24 22 21 19 19 19 20 20 19
26 26 23 21 21 21 21 20 21 21 21 22 22 22 22 21 21 21 21 21 21 21 21 21 21 21 20 20 20 21 21 22 23 23 24 22 20 20 19 20 20 20 19
26 26 25 23 21 21 21 21 21 21 21 21 21 22 22 21 21 21 21 21 21 21 21 21 22 22 21 21 21 21 22 22 23 23 25 23 20 19 19 20 21 21 20
26 26 25 24 24 24 23 21 21 20 20 21 21 21 21 21 21 22 22 21 21 21 22 22 22 22 22 22 21 21 22 23 24 24 24 21 20 20 19 20 20 21 20
26 25 25 25 23 23 23 22 21 21 21 22 22 22 22 24 24 23 22 21 22 22 22 22 22 22 22 23 22 22 24 25 25 25 24 21 20 19 19 20 21 21 20
26 26 25 25 24 24 24 23 23 23 24 24 23 23 24 25 24 23 22 23 23 23 23 23 23 23 24 26 25 25 25 24 25 24 23 21 20 19 20 20 21 21 20
26 25 25 24 24 24 23 24 24 24 24 23 23 24 24 24 24 24 24 24 24 24 25 25 25 26 24 25 26 25 25 25 25 25 22 22 21 20 20 21 21 21 21
25 25 25 24 24 24 24 24 24 24 24 24 23 23 24 24 24 25 25 24 25 25 24 25 26 25 25 25 26 25 26 26 26 25 23 23 22 22 22 21 21 21 22
26 25 24 23 23 22 24 24 24 24 25 24 24 23 24 25 24 24 24 25 25 25 25 25 25 25 25 26 26 26 26 25 25 26 25 23 23 23 23 23 23 23 23
26 25 24 23 22 23 23 23 24 25 24 25 25 24 23 25 24 24 24 25 25 25 25 25 25 26 27 27 26 26 26 26 25 26 26 24 24 24 24 24 24 24 24
26 25 24 24 23 23 23 23 24 25 25 25 25 23 23 24 23 24 24 25 25 24 24 25 26 26 27 28 26 27 27 26 26 26 26 26 25 25 25 24 24 25 25
26 25 24 25 24 24 23 23 25 25 25 25 25 24 24 23 23 24 25 25 25 25 26 27 27 28 28 28 27 28 27 27 26 26 26 26 26 27 26 25 25 25 25
25 25 24 25 25 24 23 24 25 23 25 25 25 25 23 23 23 24 25 25 25 26 26 27 27 27 28 28 29 28 28 28 27 28 27 27 26 27 27 27 26 26 26
25 25 25 25 24 24 24 24 25 25 25 25 25 25 23 24 23 24 25 24 25 26 27 27 26 27 28 28 29 29 29 28 28 28 28 28 28 28 28 27 27 28 27
26 25 25 25 23 24 24 25 25 26 25 25 25 23 23 24 24 24 25 25 25 26 25 26 27 27 28 28 29 30 29 29 29 29 29 29 28 29 28 28 28 27 28
26 26 25 24 23 24 25 25 26 26 26 26 25 24 24 24 24 24 24 25 25 26 25 25 25 28 28 27 29 30 31 31 30 30 30 29 29 29 29 29 28 27 27
27 26 25 24 24 24 25 24 24 24 25 25 24 24 24 24 24 24 24 25 24 26 26 25 26 26 29 27 26 29 31 31 31 30 30 30 29 30 29 29 29 28 28
28 26 25 24 24 23 23 25 25 25 26 27 26 26 25 24 24 24 24 24 24 25 25 25 26 26 27 28 28 27 27 27 32 32 31 30 30 30 29 30 30 29 28
28 27 26 25 24 24 23 25 24 26 26 26 26 24 24 24 24 24 24 24 24 25 24 24 25 25 27 28 28 28 27 29 28 31 32 31 31 30 30 30 30 30 29
29 27 27 25 24 24 23 23 24 25 26 26 26 25 25 25 24 24 24 24 23 25 24 25 24 25 25 26 27 28 29 29 30 31 31 31 31 30 30 30 29 29 29

GFSSE_925_temp_105.txt.gz
Temp
26 22 21 20 20 21 21 21 21 21 21 21 21 21 21 21 21 21 21 21 21 21 21 21 21 21 21 20 20 20 20 20 21 21 21 20 21 20 21 21 23 22 20
27 23 21 20 21 21 21 21 21 21 21 21 21 21 21 21 21 21 21 21 21 21 21 20 21 21 21 21 20 20 21 22 21 22 22 21 21 20 21 22 21 20 20
27 24 22 21 21 21 20 21 21 21 21 21 21 21 21 21 21 21 21 20 21 21 20 21 21 21 21 21 20 20 22 23 22 22 23 23 21 20 20 20 20 20 20
28 26 23 21 21 21 21 21 21 21 21 21 21 21 21 21 21 21 21 21 21 21 21 21 21 21 21 20 20 20 22 22 24 25 25 24 22 20 20 20 20 20 21
26 26 22 21 22 21 21 20 21 21 21 21 21 21 21 21 21 21 21 21 21 21 21 21 20 20 21 20 20 20 23 23 24 24 24 23 23 20 20 20 21 21 21
26 24 22 21 21 20 21 21 21 21 21 21 22 22 21 21 21 21 21 21 21 21 21 21 21 21 21 20 20 21 23 23 24 25 23 22 21 20 20 20 20 20 19
27 25 23 20 21 21 21 21 21 21 21 21 21 21 21 21 21 21 21 21 21 21 21 21 21 21 21 20 20 22 23 24 24 25 23 22 21 20 20 20 20 20 19
29 26 23 21 21 21 21 21 21 21 21 21 21 21 21 21 21 21 21 21 21 21 21 21 21 21 21 21 21 22 23 24 26 25 23 22 20 20 20 20 20 20 19
27 26 25 24 22 21 21 21 21 21 21 22 21 21 21 21 21 21 21 21 21 21 21 21 21 21 21 21 22 23 24 24 25 24 25 22 20 20 20 20 20 20 20
27 25 25 25 24 24 23 21 21 21 21 21 21 22 22 22 22 22 23 21 21 21 21 22 22 22 22 23 23 24 24 25 26 26 24 21 20 20 20 20 21 21 21
26 26 26 25 24 24 23 22 22 22 23 23 23 23 23 25 24 23 23 22 22 23 23 23 24 23 23 24 25 25 25 27 27 26 23 21 20 20 20 21 21 21 21
26 26 26 27 26 25 25 23 24 23 23 24 24 24 25 25 25 24 23 23 24 24 24 24 25 25 25 24 26 26 26 26 27 26 23 22 21 20 20 21 22 21 22
28 27 25 25 25 26 26 26 27 25 25 24 25 26 25 25 25 25 24 25 25 25 25 26 25 25 27 28 28 28 27 27 27 26 23 23 22 21 21 22 22 22 22
28 28 28 27 26 26 26 27 27 26 25 26 25 25 25 26 26 26 27 26 26 27 27 27 27 26 26 27 28 28 28 28 28 26 24 24 23 23 23 23 23 23 23
29 28 27 26 25 25 26 27 27 26 26 26 25 24 26 26 26 26 25 26 27 27 28 28 28 27 27 28 28 28 28 27 28 28 25 25 24 24 24 24 24 24 24
29 28 26 24 24 25 25 26 26 24 26 27 26 26 25 26 26 26 26 27 27 27 28 27 27 28 29 28 27 28 28 28 27 28 27 25 25 25 25 25 25 25 25
29 27 26 25 25 25 25 25 26 27 26 26 26 25 25 26 25 26 26 26 27 26 26 27 28 28 29 29 28 28 28 28 27 27 29 27 26 26 26 25 25 25 25
28 27 27 27 26 25 26 26 27 27 27 27 26 25 25 24 25 26 26 28 27 27 28 29 29 30 30 30 29 30 29 29 28 28 28 28 29 27 27 26 26 26 26
27 26 27 26 27 26 25 26 27 26 27 27 27 26 25 25 25 26 26 26 25 28 29 29 29 29 30 30 30 30 30 29 29 29 28 29 28 29 29 27 27 27 27
27 26 27 27 26 26 25 26 27 26 27 27 27 26 25 25 25 25 26 26 26 28 28 28 27 29 29 29 31 30 30 30 30 29 29 30 29 29 30 28 29 28 28
27 27 27 26 25 26 26 27 26 26 27 26 25 25 25 25 25 25 26 26 27 27 26 27 28 28 30 29 30 31 30 30 30 30 31 31 30 31 30 29 29 29 29
28 27 26 26 25 25 27 26 27 27 27 27 26 26 26 25 25 25 26 26 24 27 26 26 27 28 30 29 30 32 32 32 32 32 31 31 31 31 30 30 29 28 29
28 27 27 26 25 25 26 25 26 27 26 27 27 26 26 26 25 25 25 25 26 26 27 26 27 28 30 29 28 29 32 30 32 32 31 31 30 31 31 30 30 30 29
29 28 27 26 25 24 25 26 25 26 27 26 27 27 26 26 26 25 25 25 25 26 26 27 27 27 28 30 30 29 28 29 30 32 32 31 31 31 31 31 32 30 30
30 29 27 26 25 26 25 24 25 26 25 23 27 26 26 25 25 26 25 25 25 26 26 26 26 26 28 28 30 31 29 31 30 32 30 32 32 32 32 31 31 31 31
31 29 28 26 25 25 24 25 25 25 26 26 26 26 27 26 26 26 25 25 25 25 25 26 26 26 25 26 28 29 30 30 29 31 32 31 32 32 32 32 31 31 31

GFSSE_925_temp_108.txt.gz
Temp
23 21 21 21 21 22 21 22 21 21 21 21 21 21 21 21 21 21 21 21 21 21 21 21 21 21 21 21 21 21 21 21 21 22 21 21 21 21 21 21 22 20 20
24 22 21 21 21 21 21 21 22 21 21 21 21 21 21 21 21 21 21 21 21 20 20 21 21 21 20 20 21 21 21 21 21 22 22 21 21 21 21 21 21 20 20
24 22 21 21 21 21 21 21 21 21 21 21 21 21 21 21 21 21 21 21 21 21 21 21 21 21 20 21 22 22 22 22 22 23 22 21 21 20 20 20 20 20 20
25 23 22 21 21 21 21 21 21 21 21 21 21 21 21 21 21 21 21 21 21 21 21 21 21 21 20 21 23 23 22 23 23 24 24 22 21 20 20 20 20 20 20
25 23 21 21 21 21 21 21 21 21 21 21 21 21 21 21 21 21 21 21 21 21 21 21 21 21 20 21 23 23 23 23 23 23 23 22 21 20 20 20 20 21 20
25 23 21 21 21 21 21 21 21 21 21 21 21 21 21 21 21 21 21 21 21 21 21 21 21 21 20 22 23 23 23 24 23 23 22 21 21 20 20 20 20 19 19
25 23 21 21 21 21 21 21 21 21 21 21 21 21 21 21 21 21 21 21 21 21 21 21 21 21 20 22 23 23 24 24 24 23 22 21 20 20 20 20 20 19 19
26 24 22 21 21 21 21 21 21 21 21 21 22 22 22 21 21 21 21 21 21 21 21 21 21 21 22 23 24 24 24 23 24 23 22 21 20 20 20 20 20 20 20
27 25 23 22 21 21 21 21 21 21 22 22 21 22 21 21 21 21 21 21 21 21 21 22 22 23 24 24 24 25 25 24 24 23 22 21 21 20 20 20 20 20 20
27 25 25 23 23 22 22 21 22 22 22 22 22 22 22 21 21 21 22 22 21 22 23 23 23 24 25 25 25 25 25 25 24 24 23 22 21 20 21 21 21 21 21
26 26 25 24 24 23 22 21 22 22 23 22 23 23 23 24 23 22 23 23 23 24 24 24 24 24 24 24 25 26 26 26 25 24 24 22 21 21 21 21 22 22 21
26 26 24 25 24 25 24 23 23 23 23 24 23 23 23 25 25 24 24 24 24 24 25 25 25 24 24 24 25 26 26 27 26 24 24 23 21 20 20 22 22 22 22
27 26 25 25 25 25 25 24 24 24 24 25 25 24 25 26 25 25 24 24 25 25 22 24 25 23 26 25 25 27 27 27 26 25 24 23 23 22 22 23 23 23 23
26 26 26 26 25 26 26 26 25 25 25 26 26 26 25 25 25 22 23 24 25 24 26 26 26 27 26 28 28 28 28 28 27 26 25 24 24 24 24 24 24 24 24
28 27 26 25 26 26 27 26 26 26 26 26 25 25 25 26 26 25 27 26 25 25 27 27 27 27 27 28 28 28 27 28 27 26 26 25 25 25 25 25 25 25 25
29 27 25 25 25 25 26 26 26 26 26 25 25 21 25 25 25 26 25 24 27 26 27 28 27 27 28 28 28 28 28 27 27 27 27 26 26 26 26 25 25 26 25
29 26 25 25 25 25 26 25 26 26 26 26 25 25 24 26 26 25 26 26 27 28 28 28 28 29 28 28 28 28 28 28 27 27 27 27 27 27 26 26 26 26 26
28 26 25 26 26 25 26 26 25 26 26 26 26 26 25 25 25 26 25 26 27 27 26 28 28 29 29 29 28 29 29 28 27 28 28 27 28 27 27 27 27 27 27
27 27 26 27 26 26 25 26 26 27 27 26 26 26 25 25 25 25 26 27 27 26 26 27 28 29 29 30 30 29 29 29 28 28 28 28 28 28 28 28 27 28 27
27 27 26 27 26 26 26 26 27 26 27 26 26 25 25 25 25 25 26 27 25 26 27 27 28 29 29 29 29 30 30 30 29 29 28 29 29 29 28 28 28 28 28
27 27 27 26 26 25 26 26 26 26 26 26 26 25 25 25 25 25 26 26 24 25 27 27 27 27 29 30 29 30 30 30 30 30 30 29 30 29 30 29 29 28 28
28 27 27 26 26 26 26 26 26 26 26 26 26 26 25 26 25 25 25 26 25 26 27 26 27 27 29 29 29 28 27 29 31 31 31 31 31 31 30 29 29 29 29
28 27 26 25 26 26 25 26 26 25 26 26 25 26 25 25 25 25 25 25 26 26 26 26 27 27 28 29 29 29 25 26 30 31 31 31 31 31 30 30 30 30 29
28 27 26 25 26 25 25 26 25 26 26 26 26 26 26 26 26 25 26 26 25 26 26 26 26 26 27 27 30 30 29 27 20 24 31 31 31 31 31 31 30 30 30
29 28 26 25 25 25 25 24 25 25 25 26 25 25 26 26 26 26 26 26 25 25 25 26 26 26 26 26 27 28 30 29 27 24 20 23 30 31 31 31 31 30 28
29 28 26 26 25 25 24 25 25 24 24 23 22 24 25 25 25 25 26 25 25 25 25 26 26 26 26 26 27 27 26 25 24 23 19 20 21 24 21 22 27 25 24

GFSSE_925_temp_111.txt.gz
Temp
22 22 21 20 21 22 21 22 22 21 21 21 21 21 20 21 21 21 21 21 21 21 21 21 21 21 21 21 21 21 21 21 21 21 21 21 20 21 21 20 20 20 20
22 21 21 21 21 21 21 21 21 21 21 21 21 21 21 21 21 20 21 21 21 21 21 21 21 21 21 21 21 21 21 21 21 21 21 21 20 20 20 20 20 20 20
22 22 21 21 21 21 21 21 21 21 21 21 21 21 21 21 21 21 21 21 20 21 21 21 21 21 21 21 21 22 22 21 22 21 21 21 21 20 20 20 20 20 20
22 21 21 22 21 21 21 21 21 21 21 21 21 21 21 21 21 21 21 21 21 21 21 21 21 22 21 21 22 22 22 22 22 22 22 21 21 20 20 20 20 20 20
22 22 21 21 21 21 21 21 21 21 21 21 21 21 21 21 21 21 21 21 21 21 21 21 21 22 22 22 23 22 22 23 22 22 22 21 20 20 20 20 20 20 20
22 22 21 21 21 21 21 21 21 21 21 21 21 21 21 21 21 21 21 21 21 21 21 21 21 23 23 23 23 23 22 23 23 22 21 21 21 20 20 20 20 20 20
22 21 21 21 21 21 21 21 21 21 21 21 21 21 21 21 21 21 21 21 21 21 21 21 22 24 24 24 23 23 23 23 23 22 22 21 21 20 20 20 19 19 20
22 21 21 21 21 21 21 21 21 21 21 21 21 21 21 21 21 21 21 21 21 21 21 22 23 24 24 24 24 24 23 23 23 23 22 21 21 21 20 20 20 19 20
23 22 21 21 21 21 21 21 21 22 22 22 21 21 21 21 21 21 21 21 21 21 21 22 24 24 24 24 24 24 23 23 23 23 23 22 21 20 20 20 20 20 20
23 23 22 22 22 21 21 21 22 22 22 21 21 21 21 21 21 22 22 22 23 23 23 23 23 24 24 25 25 24 24 23 22 23 24 22 21 21 21 21 21 21 21
24 23 23 22 22 22 21 21 22 22 22 22 22 22 23 23 22 22 23 23 23 22 23 23 24 24 24 24 25 26 25 24 24 24 24 23 22 21 21 21 22 22 22
24 24 24 23 23 24 23 23 23 23 23 23 23 22 23 23 24 23 24 24 23 23 23 23 23 23 24 24 24 26 26 25 24 25 24 23 22 21 22 22 23 23 22
25 25 24 24 24 24 23 23 24 23 23 24 24 24 23 23 23 23 23 23 23 25 25 22 26 26 25 25 25 25 26 26 26 26 25 24 23 23 23 23 24 23 23
25 25 25 25 25 25 24 23 25 25 25 25 24 24 23 23 26 24 24 21 22 25 25 24 25 26 26 26 26 26 25 26 26 26 26 25 25 24 24 24 24 24 24
26 25 25 26 25 25 25 24 25 25 25 25 24 24 24 23 24 24 23 24 25 25 26 26 26 26 27 27 28 28 27 27 27 27 27 26 26 25 25 25 25 25 25
25 25 25 26 25 26 25 25 25 25 25 26 25 25 25 24 24 23 25 24 26 25 26 26 27 27 27 28 27 28 27 27 27 27 27 26 26 26 26 26 26 26 26
25 25 25 26 25 25 26 26 26 25 25 25 25 25 25 25 25 25 25 24 25 25 25 26 26 27 27 28 28 27 28 27 27 27 27 27 27 27 26 26 26 26 26
26 26 25 26 25 25 25 25 26 25 25 25 25 25 25 25 25 26 26 26 25 26 26 26 27 27 27 27 28 28 28 28 27 27 27 27 27 27 27 27 27 27 27
27 26 25 25 25 25 25 26 26 26 26 26 25 25 25 25 25 26 25 25 26 26 27 27 27 28 28 28 28 28 28 28 28 27 27 27 27 28 28 28 28 27 27
26 26 26 26 26 25 25 25 26 25 26 25 25 25 25 25 25 25 25 26 26 26 27 27 27 28 28 29 29 29 29 28 28 28 28 28 28 28 28 28 28 28 27
27 26 26 26 26 26 25 26 26 26 25 25 26 26 25 25 25 25 25 26 26 26 26 26 27 27 28 29 29 29 29 29 29 28 29 29 29 29 28 28 28 28 28
26 26 26 26 26 26 26 26 26 26 25 25 25 25 26 26 25 25 25 26 26 26 26 26 27 26 27 28 28 26 24 27 29 29 29 29 29 29 29 29 29 29 28
26 26 26 26 26 26 25 25 26 26 25 25 25 26 26 26 26 25 25 25 25 25 26 26 26 26 26 27 28 28 23 24 24 29 28 26 25 23 22 23 23 25 26
27 26 26 26 26 25 25 25 25 26 25 25 25 25 26 26 25 25 25 25 25 25 25 25 26 26 26 26 27 27 24 24 18 21 25 25 23 22 22 23 22 22 24
27 26 26 26 26 25 25 25 25 25 25 24 25 25 25 25 26 26 25 25 25 25 25 25 25 26 26 26 26 26 25 22 22 20 18 23 23 23 24 25 24 22 24
26 26 26 26 26 26 25 24 24 24 25 24 24 25 24 24 25 26 26 25 25 25 25 25 25 26 26 26 26 26 25 23 20 21 18 20 19 22 24 26 24 26 26

GFSSE_925_temp_114.txt.gz
Temp
21 21 21 21 21 21 21 21 21 21 21 21 21 21 21 20 20 20 21 21 21 21 21 21 21 21 21 21 21 20 21 22 20 20 20 20 20 20 20 20 20 20 20
22 21 21 20 21 21 21 22 21 21 21 20 20 21 21 20 20 20 21 21 21 21 21 21 21 20 20 20 21 20 21 21 21 21 21 21 20 20 20 20 20 20 20
22 21 21 21 21 21 21 21 21 21 21 21 21 21 21 21 21 21 21 21 21 21 21 21 21 21 21 21 21 21 21 21 20 20 20 21 20 20 20 20 20 20 20
21 21 21 21 21 21 21 21 21 21 21 21 21 21 21 21 21 21 21 21 21 21 21 20 21 21 21 21 21 21 22 21 21 21 21 21 20 20 20 20 20 20 20
21 21 21 21 21 20 21 21 21 21 21 21 21 21 21 21 21 21 21 21 21 21 21 21 20 21 22 22 22 22 22 21 21 22 21 21 20 21 20 20 20 20 20
21 21 21 21 21 20 21 21 21 21 21 21 21 21 21 21 21 21 21 21 21 20 21 21 22 22 22 22 22 22 22 22 22 22 21 21 21 20 20 20 19 20 20
21 21 21 21 21 20 21 21 21 21 21 21 21 21 21 21 21 21 21 21 21 21 21 22 22 23 23 22 23 22 22 22 22 22 22 21 20 20 20 19 20 20 20
22 21 21 21 21 21 21 21 21 21 21 21 21 21 21 21 21 21 21 21 21 21 22 23 23 23 23 23 23 22 22 22 23 22 21 21 20 20 20 20 20 20 20
22 21 21 21 21 21 21 21 21 21 21 21 21 21 21 21 21 21 21 21 21 21 22 23 24 24 24 23 22 22 22 22 23 23 22 22 21 21 20 21 20 20 20
21 21 21 21 21 21 21 21 22 21 21 21 21 21 21 21 21 21 21 21 21 21 22 22 23 24 24 24 23 22 23 22 22 23 23 23 22 21 21 21 21 21 21
21 22 22 22 22 22 21 21 21 21 21 21 21 21 22 23 23 22 22 22 22 22 23 23 24 24 24 24 24 23 22 22 22 23 23 23 22 21 21 22 21 22 22
21 22 23 22 22 23 21 21 22 22 23 23 23 22 23 23 22 23 22 22 21 22 23 24 24 25 25 25 24 23 23 23 23 24 23 23 23 22 22 22 22 22 22
23 23 23 23 23 22 22 22 23 23 23 23 22 22 23 23 23 23 23 23 22 23 23 23 24 25 25 25 25 24 23 24 24 24 24 24 24 23 23 23 23 23 23
23 23 23 23 23 23 23 23 23 23 23 23 23 22 23 23 23 24 24 24 24 24 24 24 24 25 25 25 25 25 24 24 24 25 25 25 24 24 24 24 24 24 23
24 24 24 23 24 24 24 24 23 23 23 23 24 24 24 25 24 25 25 25 25 24 24 24 25 25 26 26 26 26 26 25 26 26 26 26 25 25 25 25 24 24 24
25 25 24 24 24 24 25 24 24 24 24 25 24 24 25 24 25 25 25 25 25 25 24 25 25 25 26 26 27 26 27 26 27 26 26 26 26 26 25 25 25 25 25
25 25 25 25 25 26 25 25 24 24 24 25 25 24 24 24 25 24 24 25 24 24 25 26 26 26 27 27 27 27 27 27 27 27 27 27 26 26 26 26 26 26 26
25 26 25 25 25 25 25 25 24 25 25 25 25 25 24 24 24 24 24 25 24 25 25 26 27 27 27 27 26 27 27 27 27 27 27 27 27 27 27 27 27 26 26
26 25 25 25 25 25 25 25 25 25 25 25 25 25 25 25 25 25 25 25 25 25 26 26 26 27 27 27 27 27 27 27 27 27 27 27 27 27 27 27 27 27 27
25 25 25 25 25 25 25 25 25 25 24 25 25 25 25 25 25 25 25 26 26 26 26 26 26 27 27 27 27 27 27 28 28 28 27 27 27 26 24 25 25 25 25
25 25 26 25 25 25 25 25 25 25 25 25 25 25 25 25 25 25 25 26 26 26 25 26 26 27 27 28 27 27 27 27 27 28 25 25 25 25 25 25 26 26 26
25 26 25 25 25 25 25 25 25 25 25 25 25 25 25 25 25 25 25 25 26 26 25 25 26 26 27 27 27 25 23 26 25 26 25 25 24 24 24 25 26 26 26
25 26 26 25 26 25 25 25 25 25 25 25 25 25 25 25 25 25 25 25 25 25 25 25 25 26 26 24 26 26 22 22 22 23 24 25 25 25 25 26 27 26 25
25 26 26 26 26 25 25 25 25 25 24 24 25 25 25 25 25 25 25 25 25 25 25 25 25 25 26 25 24 25 26 26 20 22 22 23 24 25 26 26 27 28 27
25 26 26 26 26 25 25 25 25 25 25 24 25 25 25 25 24 25 25 25 25 25 25 25 25 25 25 25 26 24 24 23 24 21 19 22 25 27 27 27 27 27 27
25 25 25 25 25 25 25 25 25 25 25 24 24 25 25 25 25 25 25 25 25 25 25 25 25 25 25 25 25 26 25 24 24 21 19 20 21 25 26 27 26 26 25

GFSSE_925_temp_117.txt.gz
Temp
21 21 21 21 21 21 21 21 21 21 20 20 20 20 20 20 20 20 20 20 20 21 21 21 21 21 21 21 20 20 20 20 20 20 20 20 20 20 20 20 20 20 20
22 21 21 21 21 21 21 22 21 21 20 21 21 21 20 20 20 20 20 21 21 21 21 21 21 21 21 20 20 21 21 21 21 21 20 20 20 20 20 20 20 20 20
22 21 21 21 21 21 21 21 21 20 20 20 20 20 20 20 20 21 21 20 21 21 21 20 20 20 20 20 20 21 20 20 20 20 21 20 21 20 20 20 20 20 20
22 21 21 21 21 21 21 21 20 21 21 20 20 21 20 20 20 21 21 21 20 20 21 21 21 21 21 20 21 21 20 20 20 21 21 20 20 20 20 20 20 20 20
22 21 21 21 21 21 21 21 21 20 20 21 20 20 20 21 20 21 21 20 20 20 20 20 21 21 21 21 22 22 21 20 21 21 21 20 20 20 20 20 20 20 20
21 21 21 21 21 21 21 21 21 21 21 21 20 20 21 21 21 21 21 21 20 21 20 21 21 21 21 22 21 21 20 21 21 21 21 20 20 20 20 20 20 20 20
21 20 21 21 20 21 21 21 21 21 21 21 21 21 21 21 21 21 20 20 20 20 20 21 21 22 22 22 21 22 21 21 21 21 22 21 20 20 20 20 20 20 20
21 21 21 21 20 21 21 21 21 21 21 21 21 21 21 21 21 21 21 21 21 21 20 21 22 22 22 22 22 22 22 22 22 22 21 20 20 20 20 20 21 20 20
21 21 20 21 21 21 21 21 21 21 21 21 21 20 21 21 21 21 21 21 21 20 20 21 22 22 22 22 22 22 21 22 22 21 21 21 21 21 21 21 21 21 21
21 21 20 21 21 21 21 21 21 21 21 21 21 21 21 21 21 21 21 21 21 21 22 23 23 23 23 23 22 22 21 22 22 22 22 22 22 21 21 21 21 21 21
20 21 21 21 21 21 21 21 21 21 21 21 21 22 22 21 21 21 21 21 21 22 22 23 23 23 23 23 23 22 21 21 22 22 22 22 22 22 22 21 21 21 21
20 20 21 21 21 21 21 22 22 21 21 21 21 22 22 22 22 22 22 23 23 23 23 23 24 23 23 24 24 23 23 22 22 22 23 23 23 22 22 22 22 22 22
22 21 21 22 22 22 23 22 22 22 22 22 22 22 22 22 23 23 23 23 23 23 23 24 24 24 24 24 24 24 24 24 23 23 23 23 24 23 23 23 23 23 22
22 22 22 22 22 22 23 23 22 22 22 22 22 22 23 23 23 24 23 23 23 23 24 24 24 25 25 25 25 25 24 24 24 24 24 24 24 24 24 24 23 23 23
22 22 22 23 23 23 23 23 22 22 23 23 23 23 23 23 24 24 24 24 24 24 24 24 24 25 25 25 26 26 25 25 24 25 25 25 25 25 25 24 24 24 24
23 23 23 23 23 23 23 23 23 23 23 23 24 24 23 24 24 25 24 24 25 25 25 25 25 26 26 26 26 26 27 26 26 26 26 26 25 25 25 25 25 25 25
24 23 23 24 24 24 24 24 23 23 24 24 24 24 24 24 24 24 24 25 25 25 25 25 25 26 26 26 26 26 26 26 26 26 26 26 26 26 26 26 25 25 25
24 24 24 24 24 24 24 24 24 24 24 24 24 24 24 24 24 25 25 25 25 25 25 26 26 27 27 27 26 26 26 26 26 26 26 26 26 26 25 25 25 25 25
24 24 24 24 25 25 24 24 24 24 24 24 24 24 24 24 24 24 25 25 25 25 25 26 26 27 27 27 27 27 26 26 26 25 26 26 25 26 26 26 26 26 26
25 24 24 25 25 25 24 24 24 24 24 24 24 24 24 24 24 24 25 25 26 25 26 26 26 26 27 27 27 27 27 26 25 25 25 26 26 26 26 26 27 27 27
24 24 24 25 25 25 24 24 24 25 25 25 24 24 24 24 24 25 25 25 25 25 26 26 26 26 26 27 26 26 25 25 26 25 25 26 26 26 27 26 27 27 27
24 24 24 25 25 25 24 25 25 25 25 25 25 24 24 24 25 25 25 25 25 25 26 26 26 26 26 27 26 24 20 23 23 23 24 25 25 26 26 26 26 26 26
23 24 24 25 25 25 25 25 25 24 24 24 24 24 24 24 25 25 25 25 25 25 25 25 25 26 25 25 26 25 21 21 21 23 23 24 24 25 26 26 26 26 26
24 24 25 25 25 25 25 25 25 25 24 25 25 24 24 24 24 25 25 25 25 25 25 25 25 25 26 25 25 25 24 23 19 20 23 24 24 25 25 26 25 26 26
24 25 25 25 25 25 25 25 25 25 25 25 24 24 24 24 24 24 24 25 25 25 25 25 25 25 25 25 25 25 25 24 22 20 19 23 25 26 25 26 27 26 25
24 24 25 25 24 25 25 25 25 25 24 24 24 24 25 24 24 24 24 24 24 24 24 25 25 25 25 25 25 25 25 24 23 22 19 20 21 25 26 27 27 27 27

GFSSE_925_temp_123.txt.gz
Temp
21 21 21 21 21 20 21 21 20 21 20 21 21 21 21 20 20 20 20 21 21 21 21 21 21 20 21 21 21 20 21 21 20 20 20 20 20 20 20 20 21 21 20
21 21 21 21 21 21 21 21 20 21 20 21 21 21 20 20 20 20 20 20 21 21 20 21 21 20 21 21 21 20 20 21 20 20 21 20 20 20 20 20 21 20 20
21 21 22 22 21 21 21 21 20 21 20 21 21 21 20 20 20 20 20 21 21 21 21 21 21 21 21 21 21 20 20 20 20 20 21 22 21 20 20 20 20 20 20
21 21 21 21 21 21 21 21 20 21 20 20 21 21 20 20 21 21 20 21 21 21 21 21 21 21 22 21 21 20 20 21 21 21 22 23 22 20 20 20 20 20 20
21 21 21 21 21 21 21 20 20 20 20 20 21 21 21 21 21 20 20 20 20 20 21 21 21 21 21 21 21 20 20 21 21 21 22 21 22 21 20 20 20 20 20
21 21 21 21 21 21 21 20 21 20 21 20 21 21 21 20 20 21 21 21 20 20 21 21 21 21 21 21 20 20 21 21 21 21 21 21 21 20 20 20 20 20 20
21 21 22 21 21 21 21 21 21 20 21 20 20 21 21 21 21 21 21 21 21 20 21 21 21 22 21 21 20 21 22 22 21 21 21 21 21 20 20 21 21 21 21
22 21 21 21 21 21 21 21 21 20 21 21 21 20 21 20 20 21 21 21 21 21 21 22 22 22 21 22 21 22 22 21 21 21 21 22 20 20 21 21 21 21 22
21 21 21 22 21 21 21 21 21 21 21 21 20 20 21 21 21 21 21 21 21 21 21 22 22 22 22 22 22 22 22 22 21 21 22 21 21 22 22 22 22 22 22
21 21 21 21 21 22 21 21 21 21 21 20 20 20 21 20 21 21 21 21 21 21 22 23 23 22 22 22 22 22 22 22 22 22 21 21 22 22 22 22 22 22 22
21 21 20 21 21 21 21 21 21 21 21 20 20 21 21 21 21 22 21 21 21 22 22 22 23 23 23 23 22 22 22 22 22 22 22 23 23 22 22 22 22 22 22
21 21 20 21 21 21 21 21 21 21 20 21 21 21 21 21 21 21 22 22 23 23 23 23 23 23 23 23 23 23 23 22 22 22 22 23 23 22 22 22 22 22 22
22 21 21 20 22 21 21 21 21 21 21 21 22 22 22 22 22 22 22 23 23 23 23 24 24 24 24 23 23 23 23 23 23 23 23 24 23 23 22 22 22 23 23
21 21 21 21 20 21 21 21 21 21 21 21 22 22 22 22 23 23 24 24 24 24 24 24 24 24 25 25 24 23 23 24 24 23 24 24 24 23 24 24 24 23 23
22 21 21 20 21 21 22 22 21 22 22 22 22 23 23 23 23 23 24 24 24 25 25 25 25 25 25 24 24 24 24 24 24 24 23 24 24 24 24 24 24 24 24
22 22 21 21 21 22 22 23 22 22 22 22 23 23 23 24 24 23 24 24 25 25 25 25 26 25 25 25 25 26 25 25 25 25 24 24 25 25 25 25 25 25 25
22 22 21 21 21 23 23 22 23 23 23 22 23 23 23 23 24 24 24 25 25 25 25 26 26 26 26 26 26 26 26 26 25 25 25 25 25 26 26 26 26 26 25
23 22 22 22 22 23 23 23 23 23 23 23 23 24 23 23 24 24 24 24 25 25 25 25 26 25 25 25 25 25 26 25 26 26 25 25 25 25 26 26 25 25 25
23 22 22 22 22 23 23 23 23 23 23 23 23 24 24 24 24 24 24 25 25 25 25 24 25 26 26 25 26 25 26 25 25 25 26 26 26 26 25 25 26 26 25
23 22 22 22 22 23 23 23 23 23 23 23 23 24 24 24 24 24 25 25 25 25 25 24 25 26 25 25 26 25 25 25 25 25 26 26 26 26 25 26 25 24 25
23 23 22 22 23 23 22 22 22 23 22 23 24 24 24 24 24 24 25 25 25 25 26 26 25 25 25 25 25 25 24 25 24 25 26 25 25 25 25 25 24 24 24
24 23 22 22 23 22 22 23 23 23 23 23 23 23 23 24 24 24 24 24 25 24 26 26 26 25 24 24 26 27 28 26 25 25 24 25 24 24 24 24 25 25 24
24 23 22 23 23 23 23 23 24 23 23 22 23 23 23 24 24 24 24 24 25 25 24 25 25 25 26 24 25 26 28 29 27 25 25 25 24 24 24 24 24 24 24
24 23 23 23 23 23 23 23 24 24 24 24 24 24 24 24 24 24 24 24 24 25 25 25 24 25 25 26 24 24 25 24 28 29 26 25 24 24 24 24 24 23 24
24 23 23 23 23 23 23 23 24 24 24 24 23 24 24 24 24 24 24 24 24 24 24 25 25 25 24 25 25 24 23 23 23 26 29 28 26 25 24 24 24 24 25
25 24 23 22 24 23 23 24 24 23 24 23 23 23 23 23 23 24 24 24 24 24 24 24 24 25 25 24 24 24 25 26 26 26 27 26 26 26 24 24 24 24 24

GFSSE_925_temp_129.txt.gz
Temp
20 21 21 21 20 21 22 21 21 20 20 20 21 21 21 21 21 21 21 21 21 21 21 21 21 21 21 21 21 21 21 21 21 21 21 21 21 21 21 22 23 22 20
21 22 21 21 21 20 22 21 20 21 20 21 21 21 21 21 21 21 21 21 21 21 21 21 21 21 21 21 21 21 21 21 22 22 22 21 21 21 21 22 23 21 20
22 21 21 21 21 20 21 21 21 21 21 21 21 21 21 21 21 21 20 21 21 21 21 21 21 21 21 21 21 21 21 22 23 23 23 23 22 21 21 21 20 20 20
24 23 23 22 21 21 21 21 20 20 20 21 21 21 21 21 21 21 21 21 21 21 21 21 21 21 21 21 21 21 22 23 23 23 24 25 23 20 20 21 21 20 21
25 25 21 21 21 21 21 21 21 21 21 21 21 21 21 21 21 21 21 21 21 21 21 21 21 21 21 21 20 22 23 23 24 25 25 24 24 21 20 20 21 21 21
25 25 22 21 21 21 21 21 21 21 21 21 21 21 21 21 21 21 21 21 21 21 21 21 21 21 21 21 20 22 23 24 24 26 25 24 22 21 21 22 22 22 22
26 25 23 21 21 21 21 21 21 21 21 21 21 21 21 21 21 21 21 21 21 21 21 21 21 21 21 21 22 23 23 24 26 26 25 24 21 21 21 21 21 21 20
26 26 24 21 21 21 21 21 20 21 20 20 21 21 21 21 21 21 21 21 21 21 21 21 21 21 21 22 23 23 23 24 26 26 25 24 22 21 20 21 21 21 20
26 27 26 23 22 21 21 20 21 21 21 20 21 21 21 21 21 21 21 21 21 21 21 21 22 22 22 23 23 23 24 25 26 26 26 24 22 21 21 21 21 21 21
28 28 27 26 24 24 22 21 21 21 21 21 21 22 22 23 23 22 24 21 21 21 21 22 23 23 23 23 24 24 25 26 27 27 26 23 23 21 22 22 22 22 22
28 28 26 25 24 23 23 22 21 21 22 23 23 22 23 25 25 24 23 21 22 22 23 23 24 24 24 24 25 25 25 27 28 28 25 24 23 23 23 22 22 23 23
28 26 26 26 25 24 24 23 24 23 23 25 25 25 26 25 25 25 24 24 24 24 24 24 25 25 25 26 26 26 26 28 28 28 25 24 24 24 24 23 23 23 24
28 28 26 25 25 25 24 24 25 25 26 25 24 26 25 25 25 25 25 25 25 25 25 25 25 25 27 28 29 29 28 29 29 28 25 25 25 25 24 24 24 24 24
29 28 27 26 25 25 25 26 27 26 26 26 25 25 25 27 26 26 27 26 27 27 26 27 27 27 28 27 29 30 30 30 30 28 26 25 25 25 25 25 25 25 25
29 28 27 26 25 25 26 27 27 27 28 26 26 25 26 27 26 27 26 27 28 28 28 28 28 28 28 29 29 29 29 29 29 29 27 26 26 26 26 26 26 25 25
29 28 27 26 25 25 25 26 26 27 27 27 27 25 25 26 26 26 27 28 28 29 29 28 28 29 30 29 29 29 29 29 28 29 29 27 27 27 27 26 26 26 26
29 28 27 26 25 25 25 25 27 27 27 27 27 25 25 26 25 26 27 28 28 27 27 27 27 29 30 30 29 29 29 29 28 28 29 30 29 28 28 27 26 26 26
29 27 27 27 26 26 26 26 27 27 27 27 27 26 25 25 25 26 27 28 28 28 29 29 29 30 30 30 30 30 30 29 28 28 28 28 29 29 28 27 27 26 26
28 27 27 27 26 27 26 26 26 26 26 27 27 27 25 26 25 26 28 27 26 27 30 30 30 30 30 31 30 30 30 30 29 30 29 29 30 29 29 28 27 26 26
28 27 27 27 26 26 26 26 26 27 27 27 27 27 25 26 26 26 27 27 23 25 29 29 29 30 30 31 32 31 31 30 30 30 30 30 31 29 30 28 27 25 26
28 27 27 26 26 26 26 27 27 27 27 27 27 25 25 26 26 26 26 27 24 26 27 28 28 28 30 29 30 31 31 30 30 31 31 31 31 30 29 29 28 28 27
29 28 27 26 24 24 26 26 27 27 28 27 27 26 26 26 26 26 26 27 27 27 27 27 27 28 30 30 28 32 32 31 30 32 32 31 31 30 30 29 28 28 27
29 28 27 26 25 25 24 26 26 26 26 27 26 27 26 26 26 25 26 25 26 27 27 27 27 28 25 30 29 29 27 19 19 28 29 31 30 30 30 29 29 28 27
29 28 27 26 25 25 24 25 26 27 28 28 27 28 27 26 26 26 26 26 26 26 27 28 28 27 28 28 30 30 28 28 30 31 28 28 30 30 29 29 29 28 27
30 29 28 26 26 26 25 24 26 26 25 27 28 26 26 26 25 26 26 26 25 26 26 26 26 26 27 28 28 30 29 30 30 30 31 32 29 29 30 29 29 30 28
31 30 28 26 25 25 25 24 24 26 25 27 28 27 27 27 26 26 26 26 25 26 26 26 26 26 26 26 27 28 30 30 30 31 31 31 32 28 30 29 29 29 29

GFSSE_925_temp_132.txt.gz
Temp
20 20 20 20 21 20 21 20 21 20 20 20 21 21 21 21 21 21 21 21 21 21 21 21 21 21 21 21 21 22 23 23 23 22 21 21 21 21 21 22 23 21 20
21 21 20 20 21 21 20 21 21 20 20 20 21 21 21 21 21 21 21 21 21 21 21 21 21 21 21 21 21 22 22 22 21 23 23 21 21 21 22 23 22 20 20
21 21 21 21 21 21 21 22 21 20 20 20 20 20 21 21 21 21 21 21 21 21 21 21 21 21 21 21 21 21 22 22 22 22 23 22 21 21 22 22 20 20 20
22 22 21 21 21 21 21 21 20 20 21 20 20 21 21 21 21 21 21 21 21 21 21 21 21 21 21 21 22 22 22 22 22 22 23 23 22 21 20 21 21 20 21
23 23 22 22 21 21 21 21 20 20 21 21 21 21 21 21 21 21 21 21 21 21 21 21 21 21 21 22 23 23 23 23 23 24 24 23 22 20 21 20 21 21 21
24 22 22 22 21 21 21 21 21 21 21 21 21 21 21 21 21 21 21 21 21 21 21 21 21 21 21 22 23 23 24 24 25 25 24 23 22 21 21 21 22 22 22
25 23 21 21 21 21 21 21 21 21 21 21 21 21 21 21 21 21 21 21 21 21 21 21 21 21 22 23 24 24 24 25 26 25 24 22 22 22 21 22 22 22 21
26 24 22 21 21 21 21 21 21 21 21 21 21 21 21 21 21 21 21 21 21 21 21 21 22 22 23 23 24 24 25 25 26 25 24 23 22 22 22 21 22 21 21
27 25 23 22 21 21 21 21 21 21 21 21 21 21 21 21 21 21 21 21 21 21 21 22 22 22 23 23 24 25 25 25 26 25 23 23 22 22 22 22 22 21 21
27 26 25 23 22 22 21 21 21 21 22 22 22 23 24 23 22 22 22 22 21 21 23 23 23 23 24 25 25 25 25 26 26 26 25 24 23 22 22 22 22 22 22
26 25 25 25 23 22 21 21 21 22 23 22 22 23 23 23 23 22 23 23 23 23 24 24 24 24 25 25 25 25 25 26 27 26 25 24 24 23 23 23 23 23 23
25 23 23 23 24 24 24 22 22 22 24 24 24 23 24 24 25 24 24 24 24 25 25 26 25 24 25 25 25 26 27 28 27 26 25 25 24 24 24 24 24 24 24
26 27 20 25 23 24 24 23 23 24 24 25 25 25 25 25 25 24 25 25 25 25 26 26 26 26 25 26 26 28 28 29 27 26 26 25 25 25 25 25 25 25 24
25 24 24 25 24 24 24 24 25 25 26 25 25 25 25 26 25 25 25 26 26 26 26 26 27 27 28 28 29 30 30 30 28 28 26 26 26 26 26 26 26 25 25
26 26 26 25 24 23 26 23 26 27 26 26 26 21 25 26 26 27 26 26 27 27 27 28 27 28 28 29 29 30 30 30 29 28 27 27 27 27 27 26 26 26 25
29 27 25 25 26 24 25 25 26 27 27 26 26 25 25 26 26 27 26 27 28 28 28 28 28 28 28 29 29 29 29 29 29 28 28 28 28 28 28 27 27 26 26
28 26 26 26 25 25 25 26 25 27 27 26 25 26 25 26 26 26 26 27 28 28 28 28 28 29 30 29 29 29 29 29 28 28 29 29 29 28 28 27 27 27 26
29 28 26 26 25 25 26 26 26 27 27 27 26 25 26 25 26 26 26 24 24 27 26 28 29 29 30 30 29 29 29 29 28 28 29 29 29 29 28 27 27 27 27
28 27 27 27 26 26 26 26 26 26 26 25 27 26 26 26 26 25 23 23 25 25 23 26 29 30 30 30 30 30 30 29 29 29 29 29 29 29 29 28 27 26 26
28 27 27 27 26 26 26 26 26 27 26 26 27 26 26 26 26 26 23 25 26 22 25 25 29 29 30 31 31 30 30 30 30 30 30 30 30 30 29 28 28 27 26
28 27 26 26 26 26 26 26 25 25 26 27 26 26 25 26 26 26 24 26 24 23 23 28 28 28 29 30 28 28 24 25 27 26 26 25 31 31 30 29 28 28 27
28 27 26 26 26 26 26 25 26 26 26 27 26 26 26 26 26 26 24 19 24 21 23 27 27 26 26 25 26 20 19 21 26 26 25 23 26 30 30 29 29 28 27
28 27 26 25 25 25 25 24 26 26 26 27 27 26 26 26 26 26 26 25 25 22 25 27 26 27 29 25 22 21 18 19 20 27 25 27 26 27 29 29 29 29 28
29 28 26 26 25 25 25 25 25 26 26 27 27 27 26 26 26 27 26 26 26 25 25 26 26 26 25 22 20 26 26 24 17 18 22 26 24 28 29 29 29 27 27
29 29 27 26 26 26 25 25 25 26 26 26 26 26 26 26 26 26 27 26 26 26 26 26 26 26 26 26 26 24 27 27 25 27 26 24 23 28 30 29 29 29 27
30 29 27 26 25 25 25 25 26 25 23 25 25 26 27 26 26 26 27 26 25 25 25 25 25 26 26 26 26 27 27 28 29 29 27 29 29 29 30 29 29 29 27

GFSSE_925_temp_135.txt.gz
Temp
20 19 20 20 19 21 20 20 21 21 20 21 21 21 21 21 21 21 21 21 21 21 21 21 21 21 21 21 21 21 21 22 22 22 21 21 21 21 21 21 20 20 20
21 20 20 20 20 20 21 21 20 21 21 21 21 21 21 21 21 21 21 21 21 21 21 21 21 21 21 21 21 21 21 21 21 22 21 21 21 21 22 22 22 21 20
20 20 20 20 20 20 22 21 21 20 20 20 21 20 21 21 21 21 21 21 21 21 21 21 21 21 21 21 22 22 22 22 21 22 23 23 21 21 21 21 21 20 20
21 20 20 21 20 20 20 23 21 20 20 21 21 21 20 21 21 21 21 21 21 21 21 21 21 21 21 22 22 22 22 22 22 22 22 23 21 21 21 21 21 20 21
21 21 20 21 20 20 21 21 21 20 20 20 21 21 21 21 21 21 21 21 21 21 21 21 21 21 22 22 22 22 23 23 23 23 23 23 22 21 20 20 20 21 21
21 22 21 20 21 20 21 21 20 20 21 21 21 21 21 21 21 21 21 21 21 21 21 21 21 22 23 23 23 23 23 23 23 23 23 23 22 21 21 21 22 22 22
22 22 21 21 21 20 21 20 21 20 21 21 21 21 21 21 21 21 21 21 21 21 21 21 21 23 23 24 24 24 24 24 24 24 24 24 23 22 22 22 22 22 21
22 22 21 21 21 20 21 21 21 21 21 21 21 21 21 21 21 21 21 21 21 21 21 21 23 24 24 25 25 24 24 24 24 25 24 24 23 22 22 22 22 22 22
22 22 21 21 21 20 20 21 21 21 21 21 21 21 21 21 21 21 21 21 21 21 22 22 23 24 25 25 25 25 25 24 24 25 24 24 23 23 23 22 22 22 22
23 22 21 21 21 21 21 21 21 21 21 21 21 21 21 21 21 21 22 22 22 22 23 23 23 24 24 25 25 25 26 25 24 25 25 24 23 23 23 23 23 23 22
23 22 22 22 22 21 21 21 21 21 21 21 22 22 22 23 23 22 23 23 23 24 24 24 24 24 24 25 25 26 26 25 24 25 25 24 24 24 23 23 23 23 23
23 23 23 21 22 22 21 21 22 22 23 23 23 23 22 22 23 23 24 24 24 25 25 24 25 25 25 25 25 26 26 25 25 26 25 25 24 24 24 24 24 24 24
24 25 24 22 22 23 23 23 24 23 23 22 23 24 23 23 23 24 24 25 25 25 25 25 25 26 26 26 26 27 27 26 26 27 26 25 25 25 25 25 25 25 24
24 25 23 22 22 23 23 23 24 23 24 23 24 24 23 24 25 24 24 25 25 26 26 26 26 27 27 27 27 27 28 26 28 28 27 26 26 26 26 26 25 25 25
24 24 23 23 23 24 24 23 24 24 24 25 25 25 24 24 25 25 24 24 25 26 26 26 26 27 28 28 28 28 28 28 28 28 27 27 27 27 27 26 26 26 25
23 23 24 23 24 24 24 24 24 25 25 26 26 25 25 25 25 25 26 25 25 26 27 27 27 27 28 29 29 29 29 28 28 28 28 28 28 27 27 27 26 26 25
24 24 24 24 24 24 25 25 25 26 25 25 25 25 25 25 26 25 25 25 25 26 26 28 28 28 28 29 29 29 29 29 28 28 28 28 28 28 27 27 26 26 26
25 25 26 26 25 25 24 25 26 26 25 26 26 26 26 26 24 25 24 24 24 25 27 27 27 27 28 29 29 29 29 28 29 29 28 26 28 28 28 27 27 26 26
27 26 26 26 26 25 26 25 25 25 25 26 26 26 25 25 25 24 25 25 25 26 27 26 27 27 27 29 29 28 26 26 26 26 25 25 26 22 26 28 27 26 26
27 26 26 25 26 26 26 25 26 25 25 25 25 25 26 25 24 25 26 24 25 26 26 26 25 24 26 26 28 27 27 26 27 27 26 26 27 23 23 24 27 27 26
27 27 26 25 26 26 25 26 26 26 26 25 26 26 26 24 23 25 24 24 25 25 27 26 22 21 26 26 27 28 29 28 27 29 26 27 26 23 23 28 27 27 26
27 26 26 25 26 26 25 25 25 26 26 25 26 26 26 25 23 25 25 25 26 26 25 24 22 23 23 24 23 20 17 26 28 28 27 30 30 27 26 27 27 26 25
27 26 26 26 26 25 25 25 25 25 26 26 26 26 26 26 26 26 25 27 27 25 26 24 26 24 24 25 26 23 18 18 20 26 27 26 25 27 28 25 26 26 26
26 26 26 26 26 25 25 25 25 26 25 25 26 26 26 26 25 25 26 25 25 25 25 25 24 25 26 25 27 24 21 20 17 18 26 26 28 28 27 24 27 26 26
26 26 26 26 26 26 25 25 25 25 25 25 25 26 26 26 26 25 25 26 25 25 25 25 25 25 25 26 26 25 23 21 21 20 22 22 24 27 27 26 27 26 26
26 26 25 25 26 25 25 25 25 25 26 26 25 25 25 26 26 26 26 26 25 25 25 25 25 25 25 25 24 25 25 24 22 23 24 24 25 28 27 26 27 26 26

GFSSE_925_temp_138.txt.gz
Temp
19 19 19 19 21 22 23 23 22 21 21 21 21 21 21 21 21 21 21 21 21 21 21 21 21 21 21 21 21 21 20 20 20 21 21 21 20 20 20 20 20 20 20
20 19 19 19 22 22 23 22 22 21 21 21 21 21 21 21 21 21 21 21 21 21 21 21 21 21 21 21 21 21 21 21 21 21 21 21 20 20 20 20 20 20 20
20 19 19 19 21 21 21 21 21 21 21 21 21 21 21 21 21 21 21 21 21 21 21 21 21 21 21 21 21 21 22 21 21 21 22 21 20 20 20 20 20 20 20
20 20 21 20 20 20 20 21 21 21 21 21 21 21 21 21 21 21 21 21 21 21 21 21 21 21 21 22 22 22 22 21 21 21 21 21 20 20 20 20 20 20 20
20 20 20 20 20 20 21 23 21 21 21 21 21 21 21 21 21 21 21 21 21 21 21 21 21 21 22 22 22 22 22 22 22 22 22 22 21 20 21 21 21 21 20
21 21 20 20 20 20 22 21 21 21 21 21 21 21 21 21 21 21 21 21 21 21 21 21 21 22 23 23 23 23 22 22 22 22 22 23 22 21 21 21 21 22 22
21 21 21 20 20 21 20 20 20 21 21 21 21 21 21 21 21 21 21 21 21 21 21 21 23 23 23 23 23 23 23 23 22 22 23 23 23 23 22 22 22 22 22
21 21 21 20 20 20 21 21 21 21 21 21 21 21 21 21 21 21 21 21 21 21 21 23 24 24 24 24 24 23 22 23 23 23 24 24 23 22 22 22 22 22 22
21 21 21 20 21 20 20 20 21 21 21 21 21 21 21 21 21 21 21 21 21 21 22 23 24 24 25 25 24 24 23 23 23 24 24 24 23 23 22 22 22 22 22
22 22 21 21 21 21 21 21 21 21 21 21 21 21 21 21 21 21 21 21 22 22 22 23 23 23 25 25 25 24 24 23 24 24 24 24 23 23 23 23 23 22 22
21 21 21 22 22 22 22 21 21 21 21 21 21 21 21 21 21 21 23 23 23 23 23 23 24 24 24 25 25 25 25 24 24 24 24 24 24 23 23 23 23 23 23
21 21 21 21 22 22 22 21 21 21 22 22 22 22 21 22 22 22 23 23 24 24 24 24 24 25 25 25 25 25 26 25 24 25 25 25 24 24 24 24 23 23 24
22 21 22 22 21 22 23 22 22 22 23 23 23 22 22 22 22 23 23 24 24 24 25 25 24 25 25 25 26 25 25 25 24 25 25 25 25 25 25 24 24 24 24
22 23 22 22 22 22 23 23 23 23 23 23 23 23 23 24 24 24 25 25 25 25 25 25 25 25 25 25 26 26 26 25 26 25 26 26 26 26 25 25 25 24 24
23 24 23 23 23 23 23 23 23 23 23 23 23 24 24 24 24 24 24 24 24 24 25 25 26 26 26 26 27 28 27 26 26 26 26 27 26 26 25 25 25 24 24
23 24 24 24 23 23 23 24 24 24 24 23 24 25 24 25 24 24 24 25 24 25 25 25 25 25 26 27 27 28 28 27 27 27 27 26 25 24 24 24 24 25 24
24 24 24 24 24 24 24 24 24 24 25 24 25 25 25 24 24 24 24 25 25 26 25 25 26 26 27 28 28 28 27 27 26 25 25 25 24 23 22 22 21 23 25
24 25 24 24 24 23 24 24 24 24 24 25 25 25 24 24 25 25 25 25 25 25 25 24 26 27 28 27 26 28 28 27 26 26 26 25 26 27 25 23 22 22 24
24 24 24 23 24 25 25 25 25 25 25 25 25 24 25 25 25 25 26 26 26 25 25 26 25 26 26 27 27 27 27 27 27 27 26 26 27 29 27 25 23 22 24
25 25 24 24 24 24 25 24 24 24 25 25 25 25 25 25 25 25 25 26 27 26 26 26 25 25 26 25 25 26 26 26 24 25 25 25 27 28 27 26 23 22 23
25 25 25 25 25 25 25 24 24 25 25 25 25 25 25 25 24 25 25 25 25 25 26 27 27 26 25 26 27 26 25 26 26 25 24 24 24 25 25 24 23 23 24
25 25 26 26 25 25 25 25 25 25 25 25 26 25 26 25 26 25 25 26 25 25 26 27 26 26 25 25 24 22 18 25 26 25 26 25 23 25 25 24 25 24 24
24 25 26 26 26 25 25 25 25 25 25 25 25 25 25 25 25 25 25 25 25 26 25 25 25 24 26 24 24 22 19 20 19 27 28 27 23 23 26 25 24 23 25
25 26 26 25 25 25 25 25 25 25 25 25 25 25 25 25 25 25 25 25 25 25 25 25 24 25 25 24 23 23 23 22 19 20 27 27 28 28 27 27 26 25 24
25 26 26 25 25 25 25 25 25 25 25 25 25 25 25 25 25 25 25 25 25 25 25 25 25 25 25 25 24 24 24 22 21 19 19 24 27 28 28 26 27 25 24
25 25 25 25 25 25 25 25 25 25 25 25 26 25 26 25 25 25 25 25 25 24 25 25 25 25 25 25 25 25 24 24 23 20 18 19 23 26 27 27 25 24 24

GFSSE_925_temp_141.txt.gz
Temp
19 19 19 20 21 20 21 21 21 21 21 21 21 21 21 21 21 21 22 22 22 21 21 21 21 21 21 21 21 21 21 21 20 20 20 21 20 21 21 20 20 21 21
19 19 19 19 20 20 21 21 21 21 21 21 21 21 21 21 21 21 21 22 21 21 21 21 21 21 21 20 20 20 21 21 21 21 21 20 20 20 20 20 20 20 20
19 19 19 20 20 21 21 21 21 21 21 21 21 21 21 21 21 21 21 21 21 21 21 21 21 21 21 21 21 21 20 21 21 21 21 21 20 20 20 20 20 20 20
20 20 20 20 21 21 21 21 20 22 21 21 21 21 21 21 21 21 21 21 21 21 21 21 21 21 21 21 21 21 21 21 21 21 21 21 20 20 20 20 20 20 21
21 20 20 21 20 20 21 21 20 21 21 21 21 21 21 21 21 21 21 21 21 21 21 21 21 21 22 22 22 21 21 21 21 21 21 21 21 20 20 20 20 20 21
20 21 20 20 21 21 21 23 22 20 20 21 21 21 21 21 21 21 21 21 21 21 21 21 21 21 22 22 22 22 22 21 22 22 21 21 21 20 21 21 21 21 21
20 21 20 20 21 21 22 22 21 21 21 21 21 21 21 21 21 21 21 21 21 21 21 21 22 22 22 22 22 22 22 22 22 22 22 21 22 21 21 21 21 21 21
21 21 21 20 20 21 21 21 21 21 20 21 21 21 21 21 21 21 21 21 21 21 21 22 22 22 22 23 23 22 23 23 22 22 22 22 22 22 21 22 22 21 21
21 21 21 20 20 20 20 21 21 20 21 21 21 21 21 21 21 21 21 21 21 21 21 22 23 23 23 23 23 23 23 23 23 23 23 23 23 22 22 22 22 22 22
21 21 22 21 21 20 20 20 20 21 20 20 21 21 21 21 21 21 21 21 21 21 22 22 23 24 24 24 24 23 23 23 23 23 23 23 23 23 22 22 22 22 22
20 21 21 21 21 21 21 21 21 21 20 21 21 21 21 21 21 22 22 22 22 22 23 23 24 24 24 24 24 24 24 24 23 23 24 24 24 23 23 23 23 22 22
21 21 21 21 21 21 21 21 21 21 21 21 21 21 22 22 23 22 22 22 22 22 23 24 24 24 25 25 25 25 25 24 24 24 24 24 24 24 24 23 23 23 22
21 21 21 21 21 21 21 21 22 22 22 22 22 22 22 22 23 23 23 23 23 23 24 24 24 24 24 25 25 25 25 25 25 24 25 24 25 24 24 23 23 23 23
21 21 21 21 22 22 21 22 22 22 22 22 23 22 22 23 23 23 23 23 24 24 25 25 24 25 25 25 25 26 26 26 26 26 25 24 24 23 21 20 20 20 21
21 21 21 22 22 22 22 23 22 23 22 23 23 23 23 23 23 23 23 24 24 24 25 26 26 26 26 26 26 27 27 27 27 26 25 24 24 23 23 23 21 22 22
22 21 22 22 23 23 23 23 23 23 23 23 23 23 24 24 24 24 24 25 24 25 25 26 26 26 26 27 27 27 28 27 26 26 25 25 25 24 25 25 25 24 23
22 23 22 23 23 23 24 23 23 23 23 24 24 24 23 24 24 24 25 25 25 25 25 26 26 26 27 27 27 27 27 27 26 25 25 25 25 25 25 27 27 25 23
22 23 23 23 24 24 24 23 23 23 24 24 24 24 24 24 24 25 25 25 25 25 25 26 27 27 28 28 26 26 26 26 25 25 25 26 26 25 25 24 25 24 23
23 24 24 24 24 24 23 24 24 24 24 24 24 23 24 24 24 25 25 25 25 25 25 26 26 27 28 28 26 26 26 25 25 25 26 27 27 25 24 27 26 25 23
24 24 24 24 24 24 24 23 23 24 24 24 24 24 24 24 24 25 25 25 25 25 25 26 26 27 26 26 25 26 26 25 25 26 27 26 26 25 26 28 27 25 24
24 23 24 24 24 23 23 24 24 24 24 24 24 24 24 24 24 25 25 24 24 25 24 25 27 26 26 25 25 25 25 26 26 26 26 26 25 26 27 26 26 25 25
24 23 23 23 24 24 24 24 24 24 25 24 24 24 25 25 25 25 24 24 24 25 25 25 26 25 24 25 23 22 19 22 25 25 24 24 26 26 25 25 26 26 25
23 23 23 24 24 25 24 24 24 24 24 24 24 24 24 25 25 25 24 25 25 25 25 25 26 25 24 24 24 23 19 20 19 25 25 24 26 26 25 24 25 26 25
24 24 24 25 24 25 24 25 25 24 24 25 24 25 24 25 24 25 25 25 25 25 25 25 25 25 25 24 23 23 23 22 19 20 26 25 26 26 25 25 26 25 25
24 24 25 25 25 25 25 25 25 25 25 25 25 25 24 25 25 24 25 24 24 24 24 25 25 25 24 24 24 24 23 21 22 19 19 24 27 26 24 25 26 25 25
24 24 25 25 25 25 25 25 25 25 25 25 25 25 24 24 24 24 24 24 24 24 24 24 24 24 24 24 24 24 24 23 22 20 18 20 21 26 25 26 26 26 25

GFSSE_925_temp_144.txt.gz
Temp
19 19 20 20 21 20 20 21 21 21 21 21 21 21 21 21 21 21 21 22 21 21 21 21 21 21 21 21 21 21 20 20 20 20 20 21 21 21 21 21 21 21 21
19 19 19 20 20 20 21 21 21 21 21 21 21 21 21 21 21 21 20 20 21 21 21 20 20 21 21 20 21 21 21 21 21 20 20 20 20 21 20 20 21 21 21
19 19 19 20 20 20 20 21 21 21 21 21 21 21 21 21 21 21 21 21 21 21 21 21 21 21 21 21 20 21 21 21 21 21 21 21 21 20 20 20 20 20 20
20 19 20 20 20 20 20 20 20 20 21 21 21 21 21 21 21 21 21 21 21 21 21 21 21 21 21 21 21 21 21 21 21 21 21 21 20 20 20 20 20 20 21
20 20 20 20 20 19 20 21 21 20 20 21 21 21 21 21 21 21 21 21 21 21 21 21 21 21 21 21 21 21 21 21 21 21 21 21 21 20 20 21 21 20 20
20 21 21 21 19 19 20 19 19 20 20 21 21 21 21 21 22 21 21 21 21 21 21 21 21 21 21 22 22 22 21 22 22 21 21 21 21 21 21 21 21 21 21
20 21 21 21 21 20 20 20 20 20 20 21 21 21 22 21 21 21 21 21 21 21 20 21 21 22 22 22 22 22 22 22 22 21 21 21 21 22 22 22 21 21 21
21 21 22 21 21 21 21 21 21 21 21 21 21 21 21 21 21 21 21 21 21 21 21 21 22 22 22 22 22 23 23 22 22 22 22 23 22 22 22 22 22 22 21
21 21 21 21 21 21 21 21 21 21 21 21 22 21 21 21 21 21 21 21 21 21 21 22 22 22 23 23 23 23 23 23 23 23 23 23 22 22 23 22 22 22 22
21 21 21 21 22 21 21 21 21 21 21 21 21 21 21 21 21 21 21 21 21 21 22 23 23 23 23 23 23 23 23 23 23 23 23 23 23 23 23 23 22 22 22
20 21 21 21 21 21 21 20 20 20 21 20 20 21 22 21 21 21 21 21 21 22 22 23 23 23 24 24 24 23 23 24 24 24 24 23 23 22 22 21 21 21 21
20 21 21 21 21 21 21 21 21 21 21 21 21 22 22 22 21 22 22 22 22 22 23 23 23 24 24 24 24 24 24 24 24 24 24 23 23 23 22 22 22 21 22
21 20 20 20 20 20 21 21 21 21 21 22 22 22 22 22 22 22 22 23 23 24 24 24 24 24 24 25 25 25 25 25 25 24 24 24 23 23 22 24 24 25 22
21 21 21 20 20 21 21 21 21 22 22 22 22 22 22 22 23 23 23 24 24 24 24 25 25 25 25 25 26 27 27 26 25 25 25 25 24 24 25 25 24 24 23
21 21 21 21 21 21 21 22 22 22 22 22 22 22 23 23 23 24 24 24 24 24 25 25 26 26 26 27 27 27 27 27 26 26 26 25 25 25 25 25 25 24 23
21 21 22 21 21 22 22 23 22 22 22 22 22 23 23 23 24 24 24 25 24 24 25 25 26 26 27 27 27 28 28 27 27 26 26 26 25 24 24 24 25 24 23
22 22 22 22 22 22 22 23 22 22 22 23 23 23 23 23 24 24 25 25 25 25 25 26 26 26 27 27 28 27 27 27 27 26 26 25 24 24 24 24 24 24 23
22 22 22 22 22 22 23 23 23 23 23 23 23 23 23 23 24 24 25 25 25 25 25 26 26 26 26 27 27 27 27 27 26 26 25 25 24 24 24 24 23 23 24
23 23 23 22 22 23 23 23 23 23 23 23 24 24 24 24 24 24 24 25 25 25 26 26 26 26 25 25 26 25 25 25 26 26 26 25 25 25 24 24 24 23 24
23 23 23 22 22 23 23 23 24 23 23 24 24 24 24 23 24 24 24 25 25 24 25 25 25 26 25 25 24 25 25 25 25 25 26 25 24 23 23 24 24 24 25
23 22 22 22 23 22 22 23 23 24 24 24 24 24 23 23 24 24 24 24 24 24 24 25 25 25 26 25 25 25 25 25 25 26 26 26 26 24 24 24 25 25 25
24 22 23 23 23 23 24 24 24 24 24 24 24 24 23 23 24 23 24 24 24 24 24 24 25 26 25 25 24 22 20 24 26 26 25 26 26 25 25 26 26 26 25
22 23 23 23 23 23 24 24 24 23 24 23 23 24 24 23 23 23 23 23 23 23 24 24 25 25 25 24 24 23 21 22 19 25 25 25 25 25 25 25 25 26 25
23 24 23 24 24 23 23 24 24 24 24 24 24 24 24 24 23 23 24 24 24 24 24 24 24 24 25 24 23 23 22 21 21 22 25 25 25 25 25 25 25 25 26
23 24 24 24 24 23 23 24 25 24 24 24 24 24 24 24 24 23 23 24 23 23 24 23 24 24 24 24 23 23 22 22 21 20 22 23 24 24 25 25 25 24 25
23 23 23 23 24 24 23 23 24 25 25 25 25 24 24 24 24 24 23 24 23 24 24 23 23 23 23 24 24 23 23 22 21 21 20 21 22 25 24 25 25 25 24

GFSSE_925_temp_147.txt.gz
Temp
19 19 20 20 21 21 21 21 21 21 21 21 21 21 21 21 21 21 21 21 21 21 22 22 21 21 21 21 21 21 21 21 21 21 21 21 21 21 20 20 21 22 21
19 19 20 20 20 21 20 21 21 21 21 21 21 21 21 21 20 20 21 21 21 21 21 22 21 21 21 21 21 21 21 21 21 21 21 21 21 20 20 20 21 21 20
19 19 20 20 20 20 20 20 20 21 21 21 21 21 21 21 21 20 21 21 21 21 21 21 21 21 21 21 21 21 22 21 21 21 21 22 22 20 20 21 21 21 21
20 19 20 20 20 20 20 20 20 20 21 21 21 21 21 21 21 21 21 21 21 21 21 21 22 21 21 21 21 21 20 20 21 21 22 22 23 20 20 21 21 21 21
19 20 20 20 20 21 21 21 21 21 21 21 21 21 21 21 21 21 21 21 21 21 21 21 21 21 21 21 21 21 21 21 21 22 22 21 22 21 21 21 21 21 20
20 20 20 20 20 20 21 21 22 21 20 20 21 21 21 22 22 21 21 21 21 21 21 21 21 21 21 21 21 22 22 22 22 22 22 22 22 21 21 21 21 21 21
20 21 20 20 19 19 19 20 20 20 20 20 21 21 21 21 21 21 21 21 21 21 20 21 21 21 21 22 22 23 23 23 22 22 22 21 21 22 22 22 21 21 20
21 20 20 20 20 19 19 19 19 19 20 21 21 21 21 21 21 21 21 21 21 21 21 22 22 22 22 23 23 23 23 23 22 22 22 22 23 22 21 21 22 21 19
21 21 20 20 20 20 19 19 20 20 20 20 21 21 21 21 21 21 21 21 21 21 21 22 22 23 23 23 23 22 23 23 22 23 22 22 23 23 22 22 22 21 20
21 20 21 20 20 20 20 20 20 20 21 21 21 21 21 21 21 21 21 21 21 21 21 22 23 23 23 23 23 23 23 23 23 23 22 22 23 23 23 22 21 23 22
20 20 21 21 21 21 20 21 21 20 21 21 20 21 21 21 21 22 21 20 21 21 22 23 23 23 24 24 24 23 24 24 24 23 23 24 23 24 23 22 24 24 23
20 20 21 21 21 20 21 20 21 20 20 20 20 21 21 21 21 21 22 22 22 22 23 23 24 24 24 24 24 24 24 24 23 23 23 24 24 24 23 22 24 23 23
21 20 20 20 21 20 20 21 21 21 21 21 21 22 22 22 22 22 22 22 22 23 22 23 24 24 25 24 24 25 24 24 24 23 25 25 25 25 24 23 23 23 23
21 21 20 21 21 20 20 20 21 21 21 21 22 22 22 22 23 24 23 24 24 24 24 25 25 26 26 26 25 25 25 25 25 24 25 26 25 25 25 24 22 21 22
21 21 20 20 21 21 21 21 21 22 21 21 22 22 23 23 23 24 23 24 24 25 25 26 26 25 26 26 27 27 27 27 26 26 26 26 26 25 25 23 20 21 23
22 21 21 20 21 21 21 22 22 22 22 22 22 23 23 23 23 24 24 25 25 25 25 25 26 26 26 26 27 27 27 26 27 27 25 26 26 25 24 23 23 23 22
22 22 21 20 21 22 22 22 22 22 22 22 23 23 23 23 23 24 24 24 25 25 25 26 26 26 25 26 27 27 26 26 24 26 25 24 24 24 24 24 23 23 22
22 21 21 21 21 22 22 22 22 23 23 23 23 23 23 24 24 24 24 24 24 25 25 25 26 25 25 25 26 27 27 26 26 25 24 24 23 23 23 24 23 23 22
22 21 21 21 21 21 22 22 23 23 23 23 24 24 24 23 23 23 24 24 24 24 24 24 25 25 24 25 25 26 26 25 25 24 24 23 23 23 23 24 24 23 23
22 21 21 22 21 22 22 22 22 23 23 24 24 24 24 23 23 23 24 24 24 24 24 24 25 25 25 24 25 25 24 24 25 24 24 24 23 24 23 25 24 23 24
22 22 22 22 21 21 20 21 21 22 23 24 24 24 23 23 23 23 24 24 24 24 24 24 25 24 24 24 24 26 25 24 24 24 24 24 23 23 24 24 23 23 23
23 22 21 22 21 22 21 21 22 23 23 22 24 24 24 23 23 23 23 23 24 23 24 24 24 23 23 24 25 24 28 28 26 25 24 24 24 24 24 23 23 23 23
24 23 22 22 23 22 22 22 23 23 23 22 23 23 23 24 23 23 23 23 23 23 22 24 23 23 25 22 23 24 28 28 26 25 25 24 24 24 24 25 23 24 23
25 24 22 21 23 22 22 21 22 24 24 24 24 23 24 24 23 23 24 23 23 23 23 23 22 23 24 24 23 22 22 22 26 28 26 25 24 25 25 25 24 24 22
25 24 23 22 22 22 22 23 22 23 24 23 24 24 24 24 24 23 24 24 23 22 23 22 23 24 23 23 23 23 22 23 22 25 28 28 26 25 25 24 24 23 23
25 24 23 22 23 23 22 23 22 22 23 23 23 23 23 23 23 24 24 23 23 23 23 23 24 23 22 23 22 22 24 25 25 25 26 26 27 26 24 24 23 23 23